Location: Mizzole
(45.4833°N, 11.0500°E)
Time: 11:55:24
(UTC+00:00)

STARLINK-43 - Pass Details

Date: 21 October 2019
Orbit: 478 x 480 km, 53.0° (Epoch: 16 November)

Event Time Altitude Azimuth Distance (km) Brightness Sun altitude
Rises 18:33:44 0° 302° (WNW) 2,539 8.1 -24.0°
Reaches altitude 10° 18:35:55 10° 305° (NW) 1,658 6.9 -24.3°
Enters shadow 18:38:32 42° 319° (NW) 696 4.4 -24.8°
